Wind_Speed
14 14 14 15 15 15 14 14 14 13 13 12 12 11 11 11 11 11 11 11 11 10 10 10 10 10 9 9 8 9 9 8 8 8 7 7 8 8 7 7 6 6 6
15 16 16 16 17 16 16 16 15 15 15 14 14 13 13 13 12 13 12 12 12 12 12 12 12 12 11 11 10 10 10 10 9 9 9 9 9 9 9 8 8 7 7
17 17 17 18 18 18 18 18 17 16 16 16 15 15 15 15 15 14 14 14 14 14 14 14 14 15 14 13 13 12 12 11 11 10 11 10 10 10 10 9 9 8 8
18 19 19 20 20 20 20 19 19 18 18 18 17 17 16 17 17 17 16 16 16 16 16 16 16 16 16 16 15 14 14 14 13 12 12 11 11 11 11 11 11 10 10
20 20 21 22 22 22 22 22 21 21 21 20 20 19 18 18 18 18 18 18 18 18 18 18 18 18 18 17 17 16 16 15 15 14 14 13 13 13 12 13 13 12 11
21 22 22 22 23 23 23 24 24 23 23 23 22 21 21 21 20 20 20 20 20 20 20 20 20 20 20 20 19 19 18 17 17 16 16 15 15 15 14 14 14 14 13
23 23 23 24 24 24 24 24 25 25 24 24 24 23 23 23 23 23 22 22 22 22 22 22 22 23 22 22 21 21 21 20 19 18 18 18 17 17 17 16 16 16 15
24 24 24 24 24 24 25 25 25 25 26 26 26 26 26 26 25 25 25 25 24 24 24 24 24 24 24 23 23 23 22 22 22 21 20 20 20 19 18 18 18 17 17
25 25 25 25 26 26 26 26 27 27 28 28 28 28 28 28 28 28 27 27 27 27 26 26 26 26 26 26 25 25 25 24 24 24 23 22 22 22 21 20 20 19 19
26 26 27 27 27 27 27 28 29 29 30 30 30 30 30 30 30 30 30 30 30 29 29 29 28 28 28 28 28 27 27 27 26 26 25 25 24 24 23 23 22 22 21
27 28 28 28 28 29 29 30 31 31 31 32 32 32 32 32 32 32 32 32 32 32 32 32 31 30 31 31 30 30 29 29 28 28 28 27 27 27 26 26 25 24 24
29 29 29 29 29 30 30 31 32 32 32 33 33 34 34 34 34 34 34 34 34 34 34 34 34 33 33 33 33 32 32 31 30 30 30 29 29 29 29 28 28 27 26
30 30 31 31 31 31 32 32 33 33 33 34 35 35 35 36 36 36 36 36 36 36 37 37 37 36 35 35 35 35 34 34 33 32 32 32 31 31 31 30 30 30 29
31 31 32 32 33 33 33 34 34 34 35 36 36 37 37 37 37 38 39 38 38 39 39 39 39 39 38 37 37 37 36 36 36 35 35 34 34 33 33 32 32 32 32
32 33 33 33 33 34 35 35 36 36 36 36 37 38 39 39 39 40 40 41 40 40 41 41 41 41 41 40 40 40 40 39 38 38 37 37 37 36 35 35 34 34 34
33 34 34 35 35 36 36 37 38 38 38 38 38 39 40 40 40 41 41 41 41 42 42 43 44 44 43 42 42 42 42 42 41 40 40 39 39 39 38 37 37 36 36
34 35 36 36 37 37 38 38 39 39 40 40 40 41 41 41 41 42 42 43 43 44 44 45 45 46 46 45 45 44 43 44 44 43 43 42 42 41 40 39 39 38 38
36 36 37 37 38 38 39 40 40 40 41 42 42 43 43 43 43 44 45 45 45 46 46 46 46 46 46 46 46 46 45 45 45 45 45 45 44 44 43 43 42 41 40
37 37 37 38 38 39 40 41 42 42 43 44 44 44 45 46 46 46 46 47 47 47 48 49 49 48 48 48 48 48 47 47 47 47 47 47 47 47 46 46 45 44 43
38 39 39 39 40 41 41 42 44 45 45 46 46 46 47 48 48 49 49 49 49 49 50 51 51 51 51 51 51 51 50 49 50 50 50 49 49 49 49 48 47 47 47
39 40 40 41 41 42 43 44 45 45 46 48 48 48 49 50 50 51 52 52 53 52 52 53 53 53 53 54 54 53 53 52 52 52 52 52 51 51 51 50 50 48 48
41 41 42 42 43 44 45 46 47 47 48 49 49 50 51 51 52 53 53 53 53 53 54 54 54 55 55 56 56 56 55 54 54 53 53 53 53 53 53 54 54 52 51
39 40 42 43 44 45 46 46 47 48 48 49 50 51 52 53 53 53 53 54 53 54 54 54 55 55 55 55 56 56 56 55 56 54 55 54 54 54 54 55 57 56 55
39 40 41 43 44 45 46 47 48 48 49 50 51 52 53 53 53 54 55 55 55 55 55 54 54 55 55 55 55 56 56 56 56 55 55 55 56 56 55 56 57 58 57
40 41 42 43 44 45 46 47 49 50 50 51 52 53 53 54 54 55 55 55 55 55 55 55 54 55 55 55 55 56 56 56 57 57 56 56 55 56 56 56 57 59 58
40 41 42 43 44 45 47 48 49 50 51 51 52 53 54 55 55 55 55 56 56 56 54 54 54 55 56 56 56 57 57 56 57 57 57 56 55 56 56 58 58 59 60
Wind_Direction
268 267 265 264 262 261 261 260 260 259 258 256 256 257 257 256 255 254 256 254 254 253 251 249 247 246 246 242 240 240 236 232 232 231 225 224 223 221 218 219 217 215 211
269 269 268 265 264 262 260 259 258 258 258 256 256 256 255 256 257 257 258 254 255 254 254 252 249 249 248 246 243 242 237 233 235 236 233 228 229 228 225 222 222 222 221
271 270 268 266 264 263 261 259 259 259 258 258 259 258 258 257 258 260 260 257 256 256 256 257 254 253 249 248 249 249 245 239 239 241 238 231 230 232 226 226 228 229 227
271 269 268 267 265 263 262 260 259 258 258 258 258 258 258 258 258 259 261 261 261 259 257 257 257 257 255 250 249 249 250 247 244 243 240 234 232 233 230 231 233 234 232
271 269 269 268 266 264 263 262 261 259 258 258 257 257 257 258 258 258 260 261 261 261 258 258 258 258 258 256 251 248 248 248 246 245 242 238 235 236 236 236 236 237 238
270 270 269 268 267 265 263 262 261 260 260 258 257 258 259 259 260 260 260 261 261 262 260 259 260 258 258 257 254 250 248 247 247 246 243 242 239 238 239 240 240 240 242
271 271 270 269 268 266 264 263 262 261 260 258 258 259 260 260 261 262 261 262 262 262 262 261 261 258 258 258 256 253 250 248 248 247 245 245 243 242 240 240 242 243 244
271 271 271 270 269 267 265 264 262 261 260 259 259 259 259 260 261 262 263 262 263 263 262 261 261 259 258 258 257 254 252 251 250 249 247 246 245 244 244 243 244 244 245
271 271 270 270 268 267 266 266 264 262 261 260 260 260 259 260 261 262 263 263 263 263 263 262 261 261 259 258 257 256 255 253 252 251 249 248 247 246 246 247 246 245 245
271 271 270 269 268 267 267 267 266 265 263 262 261 260 260 261 262 262 263 263 263 263 262 262 261 261 260 259 257 257 256 254 253 253 252 250 248 248 248 248 249 249 248
270 270 270 268 268 268 268 268 267 266 265 264 262 262 262 262 262 262 263 263 263 262 261 261 261 260 261 259 257 257 256 255 253 253 252 250 249 249 249 249 250 251 250
269 269 269 268 268 268 268 268 268 267 266 265 264 263 262 262 262 262 263 263 262 262 261 261 260 260 260 260 259 258 256 255 254 254 253 251 250 249 250 250 250 251 250
269 269 269 268 268 269 268 268 268 268 267 266 265 264 264 263 262 263 262 263 263 262 262 261 260 260 260 259 258 258 257 256 254 254 253 252 252 251 250 250 251 251 250
270 270 268 268 268 269 269 269 269 269 268 267 266 266 265 265 264 264 263 263 263 262 261 261 260 260 260 261 259 258 257 257 255 254 253 253 253 252 251 251 251 251 251
270 270 269 268 268 269 270 269 270 270 270 269 267 267 266 266 266 266 265 263 262 262 260 260 260 260 260 261 261 259 257 257 256 255 254 253 253 253 252 252 251 251 251
271 271 270 269 269 270 270 270 271 271 270 270 270 268 267 267 267 266 265 265 263 262 261 259 259 259 259 260 260 260 258 257 256 254 254 254 253 253 253 252 252 251 251
272 272 271 270 269 270 270 271 272 271 271 271 271 271 270 269 268 267 266 265 265 263 262 261 259 259 258 259 260 260 260 258 257 255 254 253 253 253 252 252 251 251 251
273 273 272 271 270 270 270 272 272 272 272 272 272 272 271 270 268 268 267 266 266 264 262 261 261 259 259 259 259 259 259 259 258 255 253 253 252 252 252 251 250 250 250
274 274 272 271 271 271 272 272 272 273 273 273 273 274 272 271 270 270 269 267 266 264 263 262 262 261 260 260 259 259 258 258 258 256 254 253 252 252 251 251 251 250 249
274 274 272 271 272 273 273 273 273 274 275 275 274 274 274 272 271 271 269 268 267 266 265 264 263 263 262 261 260 260 259 258 257 255 255 254 252 252 251 251 250 249 249
274 274 273 272 273 274 274 273 274 275 276 276 275 274 274 273 272 272 270 269 268 268 267 266 264 264 263 261 260 260 259 259 257 255 254 253 253 252 251 250 249 249 248
276 275 273 274 274 275 275 275 275 276 277 278 277 275 274 274 273 272 270 269 268 268 268 267 266 265 263 262 261 260 259 258 257 255 254 254 254 253 252 251 250 250 249
277 276 275 276 276 277 277 277 277 278 278 279 279 277 276 274 273 272 270 268 268 268 268 267 267 265 264 263 261 261 260 258 255 254 254 254 254 254 254 252 252 251 251
279 278 277 278 278 277 277 278 278 279 279 279 280 279 277 275 273 272 271 269 269 269 269 268 268 265 264 263 261 260 259 259 256 254 253 253 254 254 254 253 252 252 252
281 279 279 279 280 280 280 280 280 280 280 280 281 280 277 275 274 273 272 271 270 270 270 268 268 266 265 264 262 260 259 258 257 256 253 252 253 254 254 253 253 252 252
283 282 281 281 281 282 282 282 282 282 282 281 281 280 278 276 274 273 272 271 270 270 270 269 268 266 265 266 264 260 258 258 257 256 254 252 252 253 254 254 253 253 253
Height
5828 5828 5828 5829 5829 5830 5830 5830 5830 5831 5831 5831 5831 5832 5832 5833 5833 5833 5834 5835 5835 5836 5836 5837 5837 5838 5838 5839 5839 5840 5841 5841 5842 5843 5844 5844 5845 5846 5847 5848 5849 5849 5850
5825 5825 5826 5826 5826 5827 5827 5828 5828 5828 5829 5829 5829 5830 5830 5831 5831 5831 5832 5832 5833 5834 5834 5835 5835 5836 5837 5837 5838 5838 5839 5840 5841 5842 5842 5843 5844 5845 5846 5847 5848 5848 5849
5822 5822 5823 5823 5823 5824 5824 5824 5825 5825 5826 5826 5826 5827 5827 5828 5828 5829 5829 5830 5830 5831 5832 5833 5833 5834 5834 5835 5836 5837 5837 5838 5839 5840 5841 5841 5842 5843 5844 5845 5846 5847 5848
5819 5819 5819 5819 5819 5820 5820 5821 5821 5822 5822 5823 5823 5824 5824 5825 5825 5826 5827 5827 5828 5828 5829 5830 5831 5831 5832 5833 5834 5834 5835 5836 5837 5838 5839 5840 5841 5841 5842 5844 5845 5846 5846
5815 5815 5815 5815 5815 5816 5816 5817 5817 5818 5819 5819 5820 5820 5821 5821 5822 5823 5823 5824 5824 5825 5826 5827 5828 5828 5829 5830 5830 5831 5832 5833 5834 5835 5836 5837 5838 5839 5840 5841 5843 5844 5845
5811 5811 5811 5811 5811 5811 5811 5812 5813 5813 5814 5815 5816 5816 5817 5818 5818 5819 5819 5820 5821 5822 5822 5823 5824 5825 5825 5826 5827 5828 5829 5830 5831 5832 5833 5835 5836 5837 5838 5839 5840 5841 5842
5806 5806 5806 5806 5806 5806 5806 5807 5807 5808 5809 5810 5811 5812 5812 5813 5814 5814 5815 5816 5817 5817 5818 5819 5820 5821 5821 5822 5823 5824 5825 5826 5828 5829 5830 5831 5832 5834 5835 5836 5837 5838 5839
5802 5801 5801 5801 5800 5801 5801 5801 5802 5803 5804 5805 5806 5807 5807 5808 5809 5809 5810 5811 5812 5813 5814 5814 5815 5816 5817 5817 5819 5820 5821 5822 5824 5825 5826 5827 5829 5830 5831 5832 5833 5835 5836
5796 5796 5795 5795 5795 5795 5795 5796 5796 5797 5798 5799 5800 5801 5802 5802 5803 5804 5805 5806 5807 5807 5808 5809 5810 5811 5812 5813 5814 5815 5816 5818 5819 5821 5822 5823 5825 5826 5827 5828 5829 5831 5832
5790 5790 5790 5789 5789 5789 5790 5790 5790 5791 5791 5792 5793 5794 5795 5796 5797 5798 5799 5799 5800 5801 5802 5803 5804 5806 5806 5807 5808 5810 5811 5812 5814 5815 5817 5819 5820 5821 5823 5824 5825 5827 5828
5784 5784 5784 5783 5783 5783 5784 5784 5784 5784 5784 5785 5786 5787 5788 5789 5790 5791 5792 5793 5794 5794 5795 5797 5798 5799 5800 5801 5802 5804 5805 5807 5808 5810 5811 5813 5815 5816 5817 5819 5820 5822 5823
5778 5778 5777 5777 5777 5777 5777 5777 5777 5777 5777 5778 5779 5780 5780 5781 5782 5783 5784 5785 5786 5787 5788 5789 5791 5792 5793 5795 5796 5797 5799 5800 5802 5804 5805 5807 5809 5810 5812 5813 5815 5816 5818
5771 5771 5770 5770 5770 5770 5770 5770 5770 5770 5770 5771 5771 5772 5773 5774 5774 5775 5776 5777 5778 5779 5780 5781 5783 5784 5786 5787 5788 5789 5791 5793 5795 5797 5798 5800 5802 5803 5805 5807 5808 5810 5811
5764 5763 5763 5763 5763 5762 5762 5762 5762 5762 5762 5763 5763 5764 5765 5765 5766 5766 5767 5768 5769 5770 5771 5772 5774 5775 5777 5779 5780 5781 5783 5785 5787 5789 5791 5793 5795 5796 5798 5800 5801 5803 5805
5757 5756 5755 5755 5755 5755 5754 5754 5754 5754 5754 5754 5755 5755 5755 5756 5757 5757 5757 5758 5759 5760 5761 5763 5764 5766 5767 5769 5771 5772 5774 5776 5778 5781 5783 5785 5786 5788 5790 5792 5794 5796 5797
5749 5748 5748 5747 5747 5746 5746 5746 5745 5745 5745 5745 5745 5745 5746 5746 5746 5747 5747 5748 5749 5750 5751 5752 5754 5755 5757 5759 5760 5762 5764 5766 5769 5771 5773 5775 5777 5779 5781 5783 5786 5787 5789
5740 5740 5739 5739 5738 5738 5737 5737 5736 5736 5736 5736 5735 5735 5735 5736 5736 5737 5737 5738 5738 5739 5740 5741 5742 5744 5746 5748 5749 5751 5753 5755 5758 5760 5763 5765 5767 5770 5772 5774 5776 5778 5780
5732 5731 5730 5730 5729 5728 5728 5727 5727 5726 5726 5725 5725 5725 5724 5724 5725 5725 5726 5726 5727 5727 5728 5729 5730 5732 5734 5736 5737 5739 5742 5744 5746 5749 5751 5754 5757 5759 5761 5764 5766 5768 5771
5722 5721 5721 5720 5720 5719 5718 5717 5717 5716 5715 5715 5714 5713 5713 5713 5713 5713 5714 5714 5714 5715 5716 5717 5718 5720 5721 5723 5725 5727 5729 5731 5734 5736 5739 5742 5745 5747 5750 5753 5755 5758 5760
5713 5712 5711 5710 5710 5709 5708 5707 5706 5705 5704 5703 5702 5702 5701 5700 5700 5701 5701 5701 5702 5702 5703 5703 5705 5706 5708 5709 5711 5713 5716 5718 5720 5723 5726 5728 5731 5734 5737 5740 5743 5746 5749
5703 5702 5701 5700 5699 5698 5697 5696 5695 5694 5692 5691 5690 5689 5688 5688 5687 5687 5687 5687 5688 5688 5689 5690 5691 5692 5693 5694 5696 5699 5701 5703 5705 5708 5711 5714 5717 5720 5724 5727 5730 5733 5736
5693 5691 5690 5689 5688 5687 5686 5684 5683 5682 5680 5679 5677 5676 5674 5674 5673 5673 5673 5673 5673 5674 5674 5674 5675 5676 5678 5679 5680 5683 5686 5689 5690 5693 5696 5699 5703 5706 5709 5713 5716 5720 5723
5682 5681 5679 5678 5677 5676 5674 5672 5671 5669 5667 5666 5664 5662 5661 5660 5659 5659 5658 5658 5658 5658 5659 5659 5660 5661 5662 5663 5664 5666 5669 5672 5676 5680 5681 5684 5687 5691 5694 5698 5701 5705 5708
5672 5670 5669 5667 5666 5664 5662 5660 5659 5657 5655 5653 5650 5648 5647 5646 5645 5644 5643 5643 5643 5643 5643 5644 5644 5645 5646 5648 5649 5650 5652 5655 5659 5664 5667 5669 5672 5675 5678 5682 5686 5689 5693
5662 5660 5658 5656 5654 5652 5650 5648 5646 5643 5641 5639 5637 5634 5633 5631 5630 5629 5628 5627 5627 5627 5628 5628 5628 5629 5630 5632 5633 5635 5637 5639 5642 5646 5651 5654 5657 5660 5663 5666 5670 5674 5677
5652 5649 5647 5645 5642 5640 5638 5635 5632 5630 5627 5625 5622 5620 5618 5616 5615 5614 5613 5612 5612 5612 5612 5613 5613 5613 5614 5615 5617 5618 5621 5624 5626 5629 5634 5638 5641 5644 5647 5650 5654 5657 5661